Location: Unspecified
(0.0000°N, 0.0000°E)
Time: 03:27:22
(UTC+00:00)

USA 225 - Pass Details

Date: 01 June 2019
Orbit: 1207 x 1227 km, 90.0° (Epoch: 13 January)

Event Time Altitude Azimuth Distance (km) Brightness Sun altitude
Rises 21:09:58 0° 10° (N) 4,135 ? -43.5°
Reaches altitude 10° 21:12:39 10° 13° (NNE) 3,173 ? -44.1°
Enters shadow 21:12:44 10° 13° (NNE) 3,146 ? -44.1°
